Regional Weather Roundup
Issued by NWS

Home | Current Version | Previous Version | Text Only | Print | Product List | Glossary Off
Versions: 1 2 3 4 5 6 7 8 9 10 11 12 13 14 15 16 17 18 19 20 21 22 23 24 25 26 27 28 29 30 31 32 33 34 35 36 37 38 39 40 41 42 43 44 45 46 47 48 49 50

263
ASUS43 KMKX 060400
RWRWI

WISCONSIN REGIONAL WEATHER ROUNDUP
NATIONAL WEATHER SERVICE MILWAUKEE/SULLIVAN WI
1000 PM CST MON DEC 05 2016

NOTE: "FAIR" INDICATES FEW OR NO CLOUDS BELOW 12,000 FEET WITH NO
SIGNIFICANT WEATHER AND/OR OBSTRUCTIONS TO VISIBILITY.

WIZ001-002-006>008-014>016-023>028-060500-
NORTHWEST WISCONSIN

CITY           SKY/WX    TMP DP  RH WIND       PRES   REMARKS
SUPERIOR ARPT  CLOUDY    35  33  92 E3        29.67F
ASHLAND        CLOUDY    35  32  88 MISG      29.73S
HAYWARD        CLOUDY    35  29  78 S12       29.70S WCI  27
SIREN          CLOUDY    36  30  78 S14G23    29.65F WCI  27
CUMBERLAND     CLOUDY    32  30  93 SE14G20   29.69S WCI  22
RICE LAKE      CLOUDY    35  31  86 SE12      29.72S WCI  26
CHETEK         MOCLDY    34  31  90 SE9       29.72F WCI  26
LADYSMITH      CLOUDY    35  31  87 SE9G18    29.76S WCI  27
EAU CLAIRE     NOT AVBL
MENOMONIE      CLOUDY    35  32  87 SE8       29.73S WCI  29
NEW RICHMOND   CLOUDY    37  31  82 S15       29.68S WCI  27
OSCEOLA        CLOUDY    37  32  83 SE16G25   29.69S WCI  27
$$

WIZ003>005-009-010-017-018-060500-
NORTH CENTRAL WISCONSIN

CITY           SKY/WX    TMP DP  RH WIND       PRES   REMARKS
MANITOWISH WTR CLOUDY    34  33  96 SE8       29.74F WCI  27
ARBOR VITAE    PTCLDY    37  33  86 SE17G23   29.75F WCI  27
WOODRUFF       PTCLDY    37  33  86 SE17G23   29.75F WCI  27
RHINELANDER    CLOUDY    34  32  92 SE9       29.79F WCI  27
EAGLE RIVER    PTCLDY    33  32  97 SE3       29.80S
LAND O LAKES   CLOUDY    34  33  93 SE7       29.81R WCI  28
PHILLIPS       PTCLDY    33  30  90 SE6       29.75R WCI  27
TOMAHAWK       CLOUDY    32  30  92 SE8       29.78F WCI  25
MEDFORD        MOCLDY    32  29  88 SE12G20   29.75F WCI  23
MERRILL        CLOUDY    32  31  98 SE9       29.80F WCI  24
$$

WIZ029-030-035-036-043>047-060500-
CENTRAL WISCONSIN

CITY           SKY/WX    TMP DP  RH WIND       PRES   REMARKS
WAUSAU         CLOUDY    32  30  92 SE8       29.81F WCI  25
MOSINEE        NOT AVBL
MARSHFIELD     CLOUDY    32  29  88 SE12      29.79F WCI  23
STEVENS POINT  CLOUDY    30  30 100 SE5       29.85F FOG     WCI  25
WAUPACA        CLOUDY    34  32  92 CALM      29.88F FOG
WAUTOMA        CLOUDY    32  31  96 SE8       29.88F FOG     WCI  25
WISC RAPIDS    CLOUDY    32  31  96 SE8       29.85F FOG     WCI  25
CAMP DOUGLAS   MOCLDY    32  32 100 SE12      29.83F WCI  23
$$

WIZ011>013-019>022-031-037>040-048>050-060500-
NORTHEAST WISCONSIN

CITY           SKY/WX    TMP DP  RH WIND       PRES   REMARKS
ANTIGO         FOG       30  30 100 SE10      29.85R VSB 3/4 WCI  21
SHAWANO        CLOUDY    34  32  92 CALM      29.91S FOG
OCONTO         CLOUDY    35  32  90 SE7       29.93S WCI  29
STURGEON BAY   NOT AVBL
GREEN BAY      CLOUDY    35  33  92 SE8       29.92F WCI  29
MANITOWOC      NOT AVBL
APPLETON       CLOUDY    34  32  93 SE7       29.89F WCI  28
CLINTONVILLE   CLOUDY    32  32 100 SE8       29.89F FOG     WCI  25
OSHKOSH        PTCLDY    32  30  92 SE6       29.89F WCI  26
$$

WIZ032>034-041-042-053>061-060500-
SOUTHWEST WISCONSIN

CITY           SKY/WX    TMP DP  RH WIND       PRES   REMARKS
LA CROSSE      MOCLDY    36  30  79 S13       29.80S WCI  27
SPARTA         PTCLDY    34  31  88 SE6       29.81F WCI  29
VIROQUA        CLOUDY    32  32 100 S9        29.80R WCI  24
BOSCOBEL       CLOUDY    35  31  85 MISG      29.86S
PRAIRIE DU CHI CLOUDY    34  31  88 SE7       29.84S WCI  28
PLATTEVILLE    CLOUDY    32  32 100 SE8       29.86R WCI  25
$$

WIZ056-057-062-063-064-067-068-060500-
SOUTH CENTRAL WISCONSIN

CITY           SKY/WX    TMP DP  RH WIND       PRES   REMARKS
REEDSBURG      CLOUDY    32  32 100 SE3       29.87R FOG
BARABOO/DELLS  CLOUDY    32  31  96 SE12      29.86S FOG     WCI  23
LONE ROCK      NOT AVBL
MINERAL POINT  SNOW      32  32 100 SE9       29.85S VSB 1/4 WCI  24
MADISON        CLOUDY    31  30  96 S9        29.89S WCI  23
MIDDLETON      NOT AVBL
WATERTOWN      CLOUDY    31  31 100 SE7       29.90F FOG     WCI  25
MONROE         FOG       30  30 100 SE15      29.87F VSB 1/2 WCI  19
JANESVILLE     CLOUDY    32  32 100 SE10      29.91F FOG     WCI  24
$$

WIZ051-052-058>065-066-070>072-060500-
SOUTHEAST WISCONSIN

CITY           SKY/WX    TMP DP  RH WIND       PRES   REMARKS
MILWAUKEE      CLOUDY    36  33  89 S9        29.93F FOG     WCI  29
WAUKESHA       CLOUDY    30  30 100 SE6       29.94S FOG     WCI  24
MILWAUKEE/TIMM CLOUDY    32  32 100 S3        29.95F FOG
RACINE         CLOUDY    37  33  85 S12       29.96F WCI  29
BURLINGTON     CLOUDY    31  31  99 S7        29.94S FOG     WCI  24
KENOSHA        CLOUDY    35  32  88 S12       29.95F WCI  27
FOND DU LAC    CLOUDY    33  29  85 SE8       29.90F WCI  26
SHEBOYGAN      CLOUDY    34  32  92 S5        29.93F FOG     WCI  30
WEST BEND      CLOUDY    32  32 100 SE5       29.93F FOG     WCI  27
JUNEAU         CLOUDY    31  30  96 SE8       29.91F FOG     WCI  23
$$

LSZ147-162-060500-
LAKE SUPERIOR

STATION/POSITION TIME  TEMP    WIND        PRES    WAVE
                       AIR SEA DIR/SP/G            HT/PER
                 (UTC) (F)     (DEG/KT/KT) (MB)    (FT/S)
DEVILS ISLAND    0300   40     120/ 19/ 24 1006.9F
PORT WING        0340   38     130/  5/ 10 1005.8F
SAXON HARBOR     0240   38     150/  4/ 10 1007.1F
$$

LMZ867-665-643>646-060500-
LAKE MICHIGAN

STATION/POSITION TIME  TEMP    WIND        PRES    WAVE
                       AIR SEA DIR/SP/G            HT/PER
                 (UTC) (F)     (DEG/KT/KT) (MB)    (FT/S)
CHAMBERS ISLAND  0340   36      70/  9/ 11 1013.2F
NORTHPORT PIER   0340   35     170/  2/  6 1014.6R
SISTER BAY       0253   35        CALM       N/A
ALGOMA LAKESHORE 0236             CALM       N/A
KEWAUNEE LAKESHO 0330   37     200/  9/ 11 1013.6F
SHEBOYGAN LAKESH 0300   38     180/ 15/ 16 1014.6S
PORT WASHINGTON  0340   38     190/  5/ 11 1014.9F
MILWAUKEE LAKESH 0330   36     180/  4/  5   N/A
KENOSHA   LAKESH 0300   38     170/ 13/ 18 1014.6
$$

TC  - TEMPERATURE IN CELSIUS
VSB - VISIBILITY IN STATUTE MILES
WCI - WIND CHILL INDEX
HX  - HEAT INDEX





USA.gov is the U.S. government's official web portal to all federal, state and local government web resources and services.